Regional Weather Roundup
Issued by NWS Sioux Falls, SD

Home | Current Version | Previous Version | Text Only | Print | Product List | Glossary Off
Versions: 1 2 3 4 5 6 7 8 9 10 11 12 13 14 15 16 17 18 19 20 21 22 23 24 25 26 27 28 29 30 31 32 33 34 35 36 37 38 39 40 41 42 43 44 45 46 47 48 49 50

000
ASUS43 KFSD 181010
RWRFSD

WEATHER ROUNDUP FOR SE SOUTH DAKOTA/SW MINNESOTA/NW IOWA
NATIONAL WEATHER SERVICE SIOUX FALLS SD
500 AM CDT THU SEP 18 2014

NOTE: "FAIR" INDICATES FEW OR NO CLOUDS BELOW 12,000 FEET WITH NO
SIGNIFICANT WEATHER AND OR OBSTRUCTIONS TO VISIBILITY.


SDZ038>040-050-052>070-181100-
SOUTHEAST SOUTH DAKOTA

CITY           SKY/WX    TMP DP  RH WIND       PRES   REMARKS
CHAMBERLAIN    PTCLDY    54  52  94 E5        29.94S
HURON          CLEAR     52  50  93 CALM      29.95S
MADISON        FAIR      48  48 100 E6        29.99R
MITCHELL       CLEAR     52  52 100 CALM      29.96S FOG
SIOUX FALLS    CLEAR     54  51  90 E5        29.98S
WINNER         FAIR      60  55  83 SE9       29.92F
YANKTON        CLEAR     55  54  94 E8        29.96R
$$

MNZ071-072-080-081-089-090-097-098-181100-
SOUTHWEST MINNESOTA

CITY           SKY/WX    TMP DP  RH WIND       PRES   REMARKS
FAIRMONT       CLEAR     52  45  76 SE5       30.02R
JACKSON        CLEAR     50  46  87 CALM      30.02S
LUVERNE        MOCLDY    55  52  88 CALM      30.00S
MARSHALL       MOCLDY    48  45  87 CALM      29.99S
MONTEVIDEO     CLEAR     52  52 100 SE6       30.02S FOG
PIPESTONE      PTCLDY    54  52  94 SE5       30.00S
REDWOOD FALLS  CLEAR     52  51  97 E6        30.02R
TRACY          MOCLDY    57  54  89 SW7       30.00S
WINDOM         CLEAR     50  48  93 CALM      30.02R FOG
WORTHINGTON    MOCLDY    48  46  93 CALM      30.02S
$$

IAZ001>003-012>014-020>022-031-032-NEZ013-014-SDZ071-181100-
NORTHWEST IOWA

CITY           SKY/WX    TMP DP  RH WIND       PRES   REMARKS
CHEROKEE       PTCLDY    52  52 100 CALM      30.00S
DENISON        PTCLDY    55  55 100 CALM      29.98S
ESTHERVILLE    CLEAR     49  48  97 CALM      30.02R
LE MARS          N/A     54  52  94 CALM      29.99S
ORANGE CITY    PTCLDY    57  54  88 E5        29.99S
SHELDON        CLOUDY    54  54 100 E5        29.99S
SIOUX CITY     PTCLDY    57  55  93 E5        29.98R
SPENCER        CLEAR     49  47  93 NE3       30.02R
STORM LAKE     PTCLDY    54  54 100 SE6       30.01R
$$

ABBREVIATIONS USED IN REMARKS
   TC - TEMPERATURE IN CELSIUS
  WCI - WIND CHILL INDEX
   HX - HEAT INDEX
  VSB - VISIBILITY




USA.gov is the U.S. government's official web portal to all federal, state and local government web resources and services.